When you browse on this site, cookies collect data to enhance your experience and personalize the content and advertising you see.
Visit our Privacy Policy to learn more. By continuing to use the site, you agree to this use of cookies and data.
  • In United Kingdom
  • List of Countries
  • For 7 days
  • Water Temperature
  • Weather Map
  • Weather Widgets
  • user-avatar
    Login

    Hourly Weather Kericho

    Today, 27 January, Monday

    Time Temperature Precipitation Wind Pressure Humidity
    00:00 +16°C° 0.4 mm 1 mps 599 mmHg 92%
    01:00 +16°C° 0.4 mm 1 mps 598 mmHg 92%
    02:00 +15°C° 0.4 mm 1 mps 598 mmHg 92%
    03:00 +15°C° 0 mm 1 mps 598 mmHg 92%
    04:00 +15°C° 0 mm 1 mps 598 mmHg 92%
    05:00 +15°C° 0 mm 1 mps 598 mmHg 93%
    06:00 +16°C° 0 mm 1 mps 599 mmHg 87%
    07:00 +18°C° 0 mm 1 mps 600 mmHg 82%
    08:00 +20°C° 0 mm 1 mps 600 mmHg 77%
    09:00 +21°C° 0.2 mm 1 mps 601 mmHg 70%
    10:00 +23°C° 0.2 mm 2 mps 601 mmHg 64%
    11:00 +25°C° 0.2 mm 2 mps 602 mmHg 57%
    12:00 +24°C° 1.4 mm 2 mps 600 mmHg 65%
    13:00 +23°C° 1.4 mm 2 mps 599 mmHg 72%
    14:00 +21°C° 1.4 mm 2 mps 598 mmHg 80%
    15:00 +21°C° 1.6 mm 1 mps 598 mmHg 84%
    16:00 +20°C° 1.6 mm 1 mps 598 mmHg 89%
    17:00 +17°C° 1.6 mm 0 mps 597 mmHg 93%
    18:00 +16°C° 1.4 mm 0 mps 598 mmHg 95%
    19:00 +16°C° 1.4 mm 0 mps 598 mmHg 96%
    20:00 +15°C° 1.4 mm 0 mps 598 mmHg 97%
    21:00 +15°C° 2.1 mm 0 mps 598 mmHg 97%
    22:00 +15°C° 2.1 mm 0 mps 598 mmHg 97%
    23:00 +15°C° 2.1 mm 0 mps 598 mmHg 98%

    Tomorrow, 28 January, Tuesday

    Time Temperature Precipitation Wind Pressure Humidity
    00:00 +15°C° 0.6 mm 0 mps 598 mmHg 97%
    01:00 +15°C° 0.6 mm 0 mps 598 mmHg 97%
    02:00 +14°C° 0.6 mm 0 mps 597 mmHg 97%
    03:00 +14°C° 0.5 mm 0 mps 598 mmHg 97%
    04:00 +14°C° 0.5 mm 0 mps 598 mmHg 98%
    05:00 +14°C° 0.5 mm 0 mps 598 mmHg 98%
    06:00 +14°C° 0.2 mm 0 mps 598 mmHg 97%
    07:00 +15°C° 0.2 mm 0 mps 599 mmHg 96%
    08:00 +15°C° 0.2 mm 0 mps 599 mmHg 95%
    09:00 +18°C° 0.3 mm 1 mps 599 mmHg 91%
    10:00 +19°C° 0.3 mm 1 mps 600 mmHg 88%
    11:00 +20°C° 0.3 mm 1 mps 600 mmHg 85%
    12:00 +19°C° 2 mm 1 mps 599 mmHg 89%
    13:00 +18°C° 2 mm 1 mps 598 mmHg 93%
    14:00 +16°C° 2 mm 1 mps 597 mmHg 97%
    15:00 +16°C° 5.8 mm 1 mps 597 mmHg 98%
    16:00 +16°C° 5.8 mm 1 mps 597 mmHg 98%
    17:00 +15°C° 5.8 mm 1 mps 597 mmHg 99%
    18:00 +15°C° 4.3 mm 1 mps 598 mmHg 99%
    19:00 +14°C° 4.3 mm 0 mps 598 mmHg 99%
    20:00 +14°C° 4.3 mm 0 mps 599 mmHg 99%
    21:00 +14°C° 3.8 mm 0 mps 599 mmHg 99%
    22:00 +14°C° 3.8 mm 0 mps 599 mmHg 99%
    23:00 +14°C° 3.8 mm 0 mps 599 mmHg 99%

    Day after tomorrow, 29 January, Wednesday

    Time Temperature Precipitation Wind Pressure Humidity
    00:00 +14°C° 1.7 mm 0 mps 599 mmHg 99%
    01:00 +13°C° 1.7 mm 0 mps 598 mmHg 99%
    02:00 +13°C° 1.7 mm 0 mps 598 mmHg 99%
    03:00 +13°C° 1.5 mm 0 mps 598 mmHg 99%
    04:00 +13°C° 1.5 mm 0 mps 598 mmHg 99%
    05:00 +13°C° 1.5 mm 0 mps 599 mmHg 99%
    06:00 +13°C° 1 mm 0 mps 599 mmHg 98%
    07:00 +14°C° 1 mm 0 mps 599 mmHg 98%
    08:00 +14°C° 1 mm 0 mps 600 mmHg 97%
    09:00 +14°C° 0.7 mm 0 mps 600 mmHg 97%
    10:00 +14°C° 0.7 mm 0 mps 600 mmHg 96%
    11:00 +15°C° 0.7 mm 1 mps 600 mmHg 95%
    12:00 +15°C° 0.8 mm 1 mps 600 mmHg 95%
    13:00 +15°C° 0.8 mm 1 mps 599 mmHg 95%
    14:00 +15°C° 0.8 mm 2 mps 599 mmHg 96%
    15:00 +15°C° 1 mm 1 mps 599 mmHg 96%
    16:00 +14°C° 1 mm 1 mps 598 mmHg 97%
    17:00 +12°C° 1 mm 0 mps 598 mmHg 97%
    18:00 +12°C° 0.1 mm 0 mps 598 mmHg 96%
    19:00 +12°C° 0.1 mm 0 mps 599 mmHg 95%
    20:00 +12°C° 0.1 mm 0 mps 599 mmHg 94%
    21:00 +13°C° 0.1 mm 1 mps 599 mmHg 94%
    22:00 +13°C° 0.1 mm 1 mps 599 mmHg 93%
    23:00 +13°C° 0.1 mm 1 mps 599 mmHg 93%

    30 January, Thursday

    Time Temperature Precipitation Wind Pressure Humidity
    00:00 +13°C° 0.1 mm 1 mps 599 mmHg 93%
    01:00 +13°C° 0.1 mm 1 mps 598 mmHg 93%
    02:00 +13°C° 0.1 mm 1 mps 598 mmHg 93%
    03:00 +13°C° 0.2 mm 1 mps 598 mmHg 93%
    04:00 +13°C° 0.2 mm 1 mps 598 mmHg 93%
    05:00 +13°C° 0.2 mm 1 mps 598 mmHg 93%
    06:00 +14°C° 0 mm 1 mps 599 mmHg 92%
    07:00 +15°C° 0 mm 1 mps 600 mmHg 90%
    08:00 +16°C° 0 mm 1 mps 600 mmHg 89%
    09:00 +19°C° 0.3 mm 1 mps 601 mmHg 80%
    10:00 +21°C° 0.3 mm 1 mps 602 mmHg 71%
    11:00 +24°C° 0.3 mm 1 mps 602 mmHg 62%
    12:00 +23°C° 1.5 mm 1 mps 601 mmHg 68%
    13:00 +22°C° 1.5 mm 1 mps 600 mmHg 75%
    14:00 +21°C° 1.5 mm 1 mps 599 mmHg 81%
    15:00 +20°C° 1.9 mm 1 mps 599 mmHg 85%
    16:00 +19°C° 1.9 mm 1 mps 598 mmHg 89%
    17:00 +16°C° 1.9 mm 0 mps 597 mmHg 93%
    18:00 +15°C° 2.4 mm 0 mps 598 mmHg 94%
    19:00 +15°C° 2.4 mm 1 mps 598 mmHg 96%
    20:00 +15°C° 2.4 mm 1 mps 598 mmHg 97%
    21:00 +15°C° 1.3 mm 1 mps 599 mmHg 96%
    22:00 +15°C° 1.3 mm 1 mps 599 mmHg 96%
    23:00 +15°C° 1.3 mm 1 mps 599 mmHg 96%

    31 January, Friday

    Time Temperature Precipitation Wind Pressure Humidity
    00:00 +14°C° 0.5 mm 1 mps 598 mmHg 96%
    01:00 +14°C° 0.5 mm 1 mps 598 mmHg 96%
    02:00 +14°C° 0.5 mm 1 mps 598 mmHg 95%
    03:00 +14°C° 0.1 mm 1 mps 598 mmHg 95%
    04:00 +14°C° 0.1 mm 1 mps 598 mmHg 95%
    05:00 +14°C° 0.1 mm 1 mps 598 mmHg 95%
    06:00 +14°C° 0.1 mm 1 mps 599 mmHg 93%
    07:00 +14°C° 0.1 mm 0 mps 600 mmHg 92%
    08:00 +15°C° 0.1 mm 0 mps 600 mmHg 90%
    09:00 +18°C° 0.2 mm 1 mps 600 mmHg 85%
    10:00 +19°C° 0.2 mm 1 mps 601 mmHg 79%
    11:00 +21°C° 0.2 mm 1 mps 601 mmHg 74%
    12:00 +21°C° 0.4 mm 1 mps 600 mmHg 71%
    13:00 +21°C° 0.4 mm 2 mps 600 mmHg 69%
    14:00 +23°C° 0.4 mm 2 mps 599 mmHg 66%
    15:00 +22°C° 0.9 mm 1 mps 599 mmHg 74%
    16:00 +21°C° 0.9 mm 1 mps 598 mmHg 81%
    17:00 +18°C° 0.9 mm 0 mps 598 mmHg 89%
    18:00 +19°C° 1.2 mm 1 mps 598 mmHg 90%
    19:00 +16°C° 1.2 mm 1 mps 598 mmHg 92%
    20:00 +15°C° 1.2 mm 2 mps 598 mmHg 93%
    21:00 +15°C° 0.9 mm 2 mps 598 mmHg 94%
    22:00 +15°C° 0.9 mm 1 mps 598 mmHg 94%
    23:00 +14°C° 0.9 mm 1 mps 598 mmHg 95%

    1 February, Saturday

    Time Temperature Precipitation Wind Pressure Humidity
    00:00 +14°C° 0.2 mm 1 mps 598 mmHg 94%
    01:00 +14°C° 0.2 mm 1 mps 597 mmHg 94%
    02:00 +14°C° 0.2 mm 1 mps 597 mmHg 93%
    03:00 +14°C° 0 mm 1 mps 597 mmHg 93%
    04:00 +14°C° 0 mm 1 mps 597 mmHg 93%
    05:00 +13°C° 0 mm 1 mps 597 mmHg 93%
    06:00 +15°C° 0.1 mm 1 mps 598 mmHg 90%
    07:00 +18°C° 0.1 mm 1 mps 599 mmHg 86%
    08:00 +17°C° 0.1 mm 0 mps 600 mmHg 83%
    09:00 +18°C° 1.2 mm 0 mps 600 mmHg 81%
    10:00 +19°C° 1.2 mm 0 mps 600 mmHg 79%
    11:00 +22°C° 1.2 mm 1 mps 600 mmHg 78%
    12:00 +22°C° 1.9 mm 1 mps 600 mmHg 79%
    13:00 +22°C° 1.9 mm 1 mps 599 mmHg 81%
    14:00 +21°C° 1.9 mm 1 mps 598 mmHg 82%
    15:00 +21°C° 0.9 mm 1 mps 598 mmHg 84%
    16:00 +20°C° 0.9 mm 1 mps 597 mmHg 87%
    17:00 +17°C° 0.9 mm 0 mps 597 mmHg 89%
    18:00 +16°C° 0.3 mm 0 mps 597 mmHg 90%
    19:00 +15°C° 0.3 mm 0 mps 597 mmHg 91%
    20:00 +15°C° 0.3 mm 1 mps 597 mmHg 92%
    21:00 +15°C° 0.2 mm 1 mps 598 mmHg 93%
    22:00 +15°C° 0.2 mm 1 mps 598 mmHg 93%
    23:00 +15°C° 0.2 mm 1 mps 598 mmHg 94%
    Show more